Time,TemperatureF,DewpointF,PressureIn,WindDirection,WindDirectionDegrees,WindSpeedMPH,WindSpeedGustMPH,Humidity,HourlyPrecipIn,Conditions,Clouds,dailyrainin,SoftwareType,DateUTC
2013-07-15 00:02:00,63.0,48.0,-100.00,WSW,248,3.0,6.0,56,-99.99,,,-99.99,,2013-07-15 06:02:00,
2013-07-15 00:11:00,63.0,47.0,-100.00,SW,235,2.0,6.0,57,-99.99,,,-99.99,,2013-07-15 06:11:00,
2013-07-15 00:22:00,63.0,47.0,-100.00,SW,235,2.0,6.0,57,-99.99,,,-99.99,,2013-07-15 06:22:00,
2013-07-15 00:32:00,63.0,47.0,-100.00,SW,235,2.0,6.0,57,-99.99,,,-99.99,,2013-07-15 06:32:00,
2013-07-15 00:42:00,62.0,48.0,-100.00,WSW,241,2.0,3.0,60,-99.99,,,-99.99,,2013-07-15 06:42:00,
2013-07-15 00:53:00,62.0,48.0,-100.00,WSW,241,2.0,3.0,60,-99.99,,,-99.99,,2013-07-15 06:53:00,
2013-07-15 01:01:00,61.0,48.0,-100.00,SW,234,2.0,3.0,62,-99.99,,,-99.99,,2013-07-15 07:01:00,
2013-07-15 01:11:00,61.0,48.0,-100.00,SW,234,2.0,3.0,62,-99.99,,,-99.99,,2013-07-15 07:11:00,
2013-07-15 01:21:00,60.0,48.0,-100.00,WSW,245,3.0,5.0,65,-99.99,,,-99.99,,2013-07-15 07:21:00,
2013-07-15 01:32:00,60.0,48.0,-100.00,WSW,245,3.0,5.0,65,-99.99,,,-99.99,,2013-07-15 07:32:00,
2013-07-15 01:43:00,60.0,47.0,-100.00,WSW,246,3.0,6.0,62,-99.99,,,-99.99,,2013-07-15 07:43:00,
2013-07-15 01:53:00,60.0,47.0,-100.00,WSW,246,3.0,6.0,62,-99.99,,,-99.99,,2013-07-15 07:53:00,
2013-07-15 02:01:00,61.0,48.0,-100.00,SW,233,1.0,2.0,61,-99.99,,,-99.99,,2013-07-15 08:01:00,
2013-07-15 02:11:00,61.0,48.0,-100.00,SW,233,1.0,2.0,61,-99.99,,,-99.99,,2013-07-15 08:11:00,
2013-07-15 02:22:00,61.0,48.0,-100.00,WSW,237,1.0,3.0,63,-99.99,,,-99.99,,2013-07-15 08:22:00,
2013-07-15 02:32:00,61.0,48.0,-100.00,WSW,237,1.0,3.0,63,-99.99,,,-99.99,,2013-07-15 08:32:00,
2013-07-15 02:43:00,58.0,48.0,-100.00,SW,236,2.0,4.0,67,-99.99,,,-99.99,,2013-07-15 08:43:00,
2013-07-15 02:53:00,58.0,48.0,-100.00,SW,236,2.0,4.0,67,-99.99,,,-99.99,,2013-07-15 08:53:00,
2013-07-15 03:01:00,57.0,47.0,-100.00,SW,236,3.0,4.0,70,-99.99,,,-99.99,,2013-07-15 09:01:00,
2013-07-15 03:11:00,55.0,47.0,-100.00,WSW,244,3.0,4.0,72,-99.99,,,-99.99,,2013-07-15 09:11:00,
2013-07-15 03:22:00,55.0,47.0,-100.00,WSW,244,3.0,4.0,72,-99.99,,,-99.99,,2013-07-15 09:22:00,
2013-07-15 03:32:00,55.0,47.0,-100.00,WSW,244,3.0,4.0,72,-99.99,,,-99.99,,2013-07-15 09:32:00,
2013-07-15 03:42:00,55.0,46.0,-100.00,WSW,238,3.0,4.0,72,-99.99,,,-99.99,,2013-07-15 09:42:00,
2013-07-15 03:52:00,55.0,46.0,-100.00,WSW,238,3.0,4.0,72,-99.99,,,-99.99,,2013-07-15 09:52:00,
2013-07-15 04:02:00,54.0,46.0,-100.00,WSW,239,3.0,4.0,74,-99.99,,,-99.99,,2013-07-15 10:02:00,
2013-07-15 04:11:00,53.0,46.0,-100.00,WSW,238,2.0,3.0,75,-99.99,,,-99.99,,2013-07-15 10:11:00,
2013-07-15 04:21:00,53.0,46.0,-100.00,WSW,238,2.0,3.0,75,-99.99,,,-99.99,,2013-07-15 10:21:00,
2013-07-15 04:32:00,53.0,46.0,-100.00,WSW,238,2.0,3.0,75,-99.99,,,-99.99,,2013-07-15 10:32:00,
2013-07-15 04:42:00,53.0,45.0,-100.00,WSW,244,2.0,3.0,76,-99.99,,,-99.99,,2013-07-15 10:42:00,
2013-07-15 04:53:00,53.0,45.0,-100.00,WSW,244,2.0,3.0,76,-99.99,,,-99.99,,2013-07-15 10:53:00,
2013-07-15 05:01:00,52.0,45.0,-100.00,WSW,241,2.0,3.0,76,-99.99,,,-99.99,,2013-07-15 11:01:00,
2013-07-15 05:11:00,52.0,45.0,-100.00,WSW,241,3.0,4.0,78,-99.99,,,-99.99,,2013-07-15 11:11:00,
2013-07-15 05:22:00,52.0,45.0,-100.00,WSW,241,3.0,4.0,78,-99.99,,,-99.99,,2013-07-15 11:22:00,
2013-07-15 05:32:00,52.0,45.0,-100.00,WSW,241,3.0,4.0,78,-99.99,,,-99.99,,2013-07-15 11:32:00,
2013-07-15 05:42:00,52.0,46.0,-100.00,WSW,255,1.0,2.0,78,-99.99,,,-99.99,,2013-07-15 11:42:00,
2013-07-15 05:52:00,52.0,46.0,-100.00,WSW,255,1.0,2.0,78,-99.99,,,-99.99,,2013-07-15 11:52:00,
2013-07-15 06:01:00,53.0,47.0,-100.00,SW,220,1.0,3.0,77,-99.99,,,-99.99,,2013-07-15 12:01:00,
2013-07-15 06:11:00,54.0,47.0,-100.00,SW,214,1.0,2.0,77,-99.99,,,-99.99,,2013-07-15 12:11:00,
2013-07-15 06:22:00,54.0,47.0,-100.00,SW,214,1.0,2.0,77,-99.99,,,-99.99,,2013-07-15 12:22:00,
2013-07-15 06:32:00,54.0,47.0,-100.00,SW,214,1.0,2.0,77,-99.99,,,-99.99,,2013-07-15 12:32:00,
2013-07-15 06:53:00,54.0,48.0,-100.00,SE,141,1.0,2.0,78,-99.99,,,-99.99,,2013-07-15 12:53:00,
2013-07-15 07:01:00,55.0,48.0,-100.00,SSW,200,1.0,2.0,77,-99.99,,,-99.99,,2013-07-15 13:01:00,
2013-07-15 07:11:00,55.0,48.0,-100.00,SSW,200,1.0,2.0,77,-99.99,,,-99.99,,2013-07-15 13:11:00,
2013-07-15 07:22:00,56.0,49.0,-100.00,SSW,192,0.0,2.0,78,-99.99,,,-99.99,,2013-07-15 13:22:00,
2013-07-15 07:32:00,56.0,49.0,-100.00,SSW,192,0.0,2.0,78,-99.99,,,-99.99,,2013-07-15 13:32:00,
2013-07-15 07:53:00,58.0,50.0,-100.00,South,184,1.0,1.0,75,-99.99,,,-99.99,,2013-07-15 13:53:00,
2013-07-15 08:02:00,59.0,50.0,-100.00,ESE,112,1.0,2.0,71,-99.99,,,-99.99,,2013-07-15 14:02:00,
2013-07-15 08:11:00,59.0,50.0,-100.00,ESE,112,1.0,2.0,71,-99.99,,,-99.99,,2013-07-15 14:11:00,
2013-07-15 08:22:00,63.0,50.0,-100.00,ESE,115,1.0,2.0,62,-99.99,,,-99.99,,2013-07-15 14:22:00,
2013-07-15 08:33:00,63.0,50.0,-100.00,ESE,115,1.0,2.0,62,-99.99,,,-99.99,,2013-07-15 14:33:00,
2013-07-15 08:42:00,64.0,50.0,-100.00,ESE,107,2.0,2.0,59,-99.99,,,-99.99,,2013-07-15 14:42:00,
2013-07-15 08:59:00,64.0,50.0,-100.00,ESE,107,2.0,2.0,59,-99.99,,,-99.99,,2013-07-15 14:59:00,
2013-07-15 09:13:00,68.0,50.0,-100.00,ESE,105,1.0,3.0,52,-99.99,,,-99.99,,2013-07-15 15:13:00,
2013-07-15 09:23:00,68.0,50.0,-100.00,ESE,105,1.0,3.0,52,-99.99,,,-99.99,,2013-07-15 15:23:00,
2013-07-15 09:34:00,68.0,50.0,-100.00,ESE,105,1.0,3.0,52,-99.99,,,-99.99,,2013-07-15 15:34:00,
2013-07-15 09:53:00,69.0,49.0,-100.00,ENE,59,2.0,4.0,48,-99.99,,,-99.99,,2013-07-15 15:53:00,
2013-07-15 10:04:00,71.0,49.0,-100.00,ENE,67,3.0,5.0,44,-99.99,,,-99.99,,2013-07-15 16:04:00,
2013-07-15 10:23:00,73.0,47.0,-100.00,East,82,2.0,4.0,40,-99.99,,,-99.99,,2013-07-15 16:23:00,
2013-07-15 10:32:00,73.0,47.0,-100.00,East,82,2.0,4.0,40,-99.99,,,-99.99,,2013-07-15 16:32:00,
2013-07-15 10:44:00,76.0,47.0,-100.00,ESE,104,3.0,7.0,35,-99.99,,,-99.99,,2013-07-15 16:44:00,
2013-07-15 10:52:00,76.0,47.0,-100.00,ESE,104,3.0,7.0,35,-99.99,,,-99.99,,2013-07-15 16:52:00,
2013-07-15 11:02:00,78.0,48.0,-100.00,ESE,119,3.0,8.0,34,-99.99,,,-99.99,,2013-07-15 17:02:00,
2013-07-15 11:13:00,80.0,48.0,-100.00,ESE,123,4.0,9.0,32,-99.99,,,-99.99,,2013-07-15 17:13:00,
2013-07-15 11:23:00,80.0,48.0,-100.00,ESE,123,4.0,9.0,32,-99.99,,,-99.99,,2013-07-15 17:23:00,
2013-07-15 11:34:00,80.0,48.0,-100.00,ESE,123,4.0,9.0,32,-99.99,,,-99.99,,2013-07-15 17:34:00,
2013-07-15 11:45:00,81.0,48.0,-100.00,SE,126,5.0,9.0,31,-99.99,,,-99.99,,2013-07-15 17:45:00,
2013-07-15 11:58:00,81.0,48.0,-100.00,SE,126,5.0,9.0,31,-99.99,,,-99.99,,2013-07-15 17:58:00,
2013-07-15 12:03:00,80.0,49.0,-100.00,SE,144,4.0,7.0,33,-99.99,,,-99.99,,2013-07-15 18:03:00,
2013-07-15 12:13:00,80.0,49.0,-100.00,SE,144,4.0,7.0,33,-99.99,,,-99.99,,2013-07-15 18:13:00,
2013-07-15 12:33:00,79.0,49.0,-100.00,SSE,150,5.0,9.0,34,-99.99,,,-99.99,,2013-07-15 18:33:00,
2013-07-15 12:45:00,81.0,50.0,-100.00,SSE,153,3.0,6.0,34,-99.99,,,-99.99,,2013-07-15 18:45:00,
2013-07-15 12:58:00,81.0,50.0,-100.00,SSE,153,3.0,6.0,34,-99.99,,,-99.99,,2013-07-15 18:58:00,
2013-07-15 13:04:00,81.0,49.0,-100.00,SE,134,1.0,4.0,32,-99.99,,,-99.99,,2013-07-15 19:04:00,
2013-07-15 13:11:00,82.0,50.0,-100.00,SSE,158,2.0,7.0,32,-99.99,,,-99.99,,2013-07-15 19:11:00,
2013-07-15 13:24:00,82.0,50.0,-100.00,SSE,158,2.0,7.0,32,-99.99,,,-99.99,,2013-07-15 19:24:00,
2013-07-15 13:56:00,82.0,47.0,-100.00,NE,35,4.0,7.0,29,-99.99,,,-99.99,,2013-07-15 19:56:00,
2013-07-15 14:04:00,83.0,44.0,-100.00,NNE,30,5.0,8.0,25,-99.99,,,-99.99,,2013-07-15 20:04:00,
2013-07-15 14:24:00,83.0,43.0,-100.00,NE,50,3.0,6.0,23,-99.99,,,-99.99,,2013-07-15 20:24:00,
2013-07-15 14:33:00,83.0,43.0,-100.00,NE,50,3.0,6.0,23,-99.99,,,-99.99,,2013-07-15 20:33:00,
2013-07-15 14:43:00,88.0,44.0,-100.00,WSW,245,3.0,7.0,22,-99.99,,,-99.99,,2013-07-15 20:43:00,
2013-07-15 14:57:00,88.0,44.0,-100.00,WSW,245,3.0,7.0,22,-99.99,,,-99.99,,2013-07-15 20:57:00,
2013-07-15 15:02:00,89.0,44.0,-100.00,East,86,3.0,8.0,20,-99.99,,,-99.99,,2013-07-15 21:02:00,
2013-07-15 15:23:00,86.0,42.0,-100.00,ENE,59,5.0,10.0,21,-99.99,,,-99.99,,2013-07-15 21:23:00,
2013-07-15 15:34:00,86.0,42.0,-100.00,ENE,59,5.0,10.0,21,-99.99,,,-99.99,,2013-07-15 21:34:00,
2013-07-15 15:44:00,86.0,42.0,-100.00,ENE,59,5.0,10.0,21,-99.99,,,-99.99,,2013-07-15 21:44:00,
2013-07-15 15:59:00,87.0,45.0,-100.00,WSW,238,4.0,8.0,23,-99.99,,,-99.99,,2013-07-15 21:59:00,
2013-07-15 16:13:00,88.0,46.0,-100.00,WSW,253,4.0,10.0,22,-99.99,,,-99.99,,2013-07-15 22:13:00,
2013-07-15 16:22:00,88.0,46.0,-100.00,South,188,3.0,6.0,24,-99.99,,,-99.99,,2013-07-15 22:22:00,
2013-07-15 16:34:00,88.0,46.0,-100.00,South,188,3.0,6.0,24,-99.99,,,-99.99,,2013-07-15 22:34:00,
2013-07-15 16:43:00,88.0,44.0,-100.00,WNW,285,5.0,10.0,22,-99.99,,,-99.99,,2013-07-15 22:43:00,
2013-07-15 16:54:00,88.0,44.0,-100.00,WNW,285,5.0,10.0,22,-99.99,,,-99.99,,2013-07-15 22:54:00,
2013-07-15 17:03:00,90.0,45.0,-100.00,WSW,256,5.0,11.0,21,-99.99,,,-99.99,,2013-07-15 23:03:00,
2013-07-15 17:13:00,90.0,45.0,-100.00,WSW,256,5.0,11.0,21,-99.99,,,-99.99,,2013-07-15 23:13:00,
2013-07-15 17:24:00,89.0,45.0,-100.00,WNW,300,4.0,8.0,21,-99.99,,,-99.99,,2013-07-15 23:24:00,
2013-07-15 17:34:00,89.0,45.0,-100.00,WNW,300,4.0,8.0,21,-99.99,,,-99.99,,2013-07-15 23:34:00,
2013-07-15 17:44:00,87.0,44.0,-100.00,North,359,4.0,9.0,21,-99.99,,,-99.99,,2013-07-15 23:44:00,
2013-07-15 17:54:00,87.0,44.0,-100.00,North,359,4.0,9.0,21,-99.99,,,-99.99,,2013-07-15 23:54:00,
2013-07-15 18:03:00,88.0,44.0,-100.00,WSW,256,2.0,4.0,21,-99.99,,,-99.99,,2013-07-16 00:03:00,
2013-07-15 18:12:00,88.0,44.0,-100.00,WSW,256,2.0,4.0,21,-99.99,,,-99.99,,2013-07-16 00:12:00,
2013-07-15 18:43:00,91.0,44.0,-100.00,WSW,242,4.0,8.0,19,-99.99,,,-99.99,,2013-07-16 00:43:00,
2013-07-15 18:53:00,88.0,45.0,-100.00,East,101,7.0,15.0,22,-99.99,,,-99.99,,2013-07-16 00:53:00,
2013-07-15 19:04:00,86.0,49.0,-100.00,ESE,115,7.0,16.0,27,-99.99,,,-99.99,,2013-07-16 01:04:00,
2013-07-15 19:12:00,82.0,48.0,-100.00,East,90,7.0,15.0,30,-99.99,,,-99.99,,2013-07-16 01:12:00,
2013-07-15 19:33:00,82.0,48.0,-100.00,East,90,7.0,15.0,30,-99.99,,,-99.99,,2013-07-16 01:33:00,
2013-07-15 19:44:00,84.0,47.0,-100.00,SE,144,5.0,11.0,27,-99.99,,,-99.99,,2013-07-16 01:44:00,
2013-07-15 20:02:00,83.0,46.0,-100.00,SSE,147,8.0,16.0,28,-99.99,,,-99.99,,2013-07-16 02:02:00,
2013-07-15 20:11:00,83.0,46.0,-100.00,SSE,147,8.0,16.0,28,-99.99,,,-99.99,,2013-07-16 02:11:00,
2013-07-15 20:45:00,74.0,52.0,-100.00,East,81,6.0,10.0,47,-99.99,,,-99.99,,2013-07-16 02:45:00,
2013-07-15 20:54:00,74.0,52.0,-100.00,East,81,6.0,10.0,47,-99.99,,,-99.99,,2013-07-16 02:54:00,
2013-07-15 21:03:00,71.0,54.0,-100.00,East,84,6.0,9.0,55,-99.99,,,-99.99,,2013-07-16 03:03:00,
2013-07-15 21:24:00,72.0,52.0,-100.00,NE,54,3.0,7.0,49,-99.99,,,-99.99,,2013-07-16 03:24:00,
2013-07-15 21:57:00,72.0,52.0,-100.00,South,186,2.0,3.0,49,-99.99,,,-99.99,,2013-07-16 03:57:00,
2013-07-15 22:01:00,72.0,51.0,-100.00,WSW,256,2.0,3.0,48,-99.99,,,-99.99,,2013-07-16 04:01:00,
2013-07-15 22:22:00,71.0,52.0,-100.00,SW,231,3.0,5.0,49,-99.99,,,-99.99,,2013-07-16 04:22:00,
2013-07-15 22:32:00,71.0,52.0,-100.00,SW,231,3.0,5.0,49,-99.99,,,-99.99,,2013-07-16 04:32:00,
2013-07-15 22:43:00,74.0,49.0,-100.00,West,269,6.0,14.0,42,-99.99,,,-99.99,,2013-07-16 04:43:00,
2013-07-15 22:53:00,74.0,49.0,-100.00,West,269,6.0,14.0,42,-99.99,,,-99.99,,2013-07-16 04:53:00,
2013-07-15 23:01:00,73.0,50.0,-100.00,West,263,10.0,17.0,44,-99.99,,,-99.99,,2013-07-16 05:01:00,
2013-07-15 23:11:00,73.0,49.0,-100.00,West,267,9.0,16.0,43,-99.99,,,-99.99,,2013-07-16 05:11:00,
2013-07-15 23:22:00,73.0,49.0,-100.00,West,267,9.0,16.0,43,-99.99,,,-99.99,,2013-07-16 05:22:00,
2013-07-15 23:32:00,73.0,49.0,-100.00,West,267,9.0,16.0,43,-99.99,,,-99.99,,2013-07-16 05:32:00,
2013-07-15 23:52:00,70.0,51.0,-100.00,WSW,249,7.0,13.0,50,-99.99,,,-99.99,,2013-07-16 05:52:00,